星链-30292 (STARLINK-30292 )

导读

STARLINK-30292是美国SpaceX公司研发生产的星链V2迷你卫星,于2023年9月12日在空军西部试验靶场由猎鹰9运载火箭发射升空,进入近地轨道运行。卫星干重约700公斤,湿重730公斤,任务为商用通信,运行轨道近地点约475公里,远地点约476公里,倾角53.16度,轨道周期约94分钟。

Basic Information
目录编号:
57844
目录名称:
STARLINK-30292
国际标识:
2023-141E
轨道中心:
EARTH
卫星名称:
星链-30292
卫星全名:
星链-30292 (STARLINK-30292 )
卫星状态:
在轨 (已飞行1010 天)
发射日期:
2023-09-12 UTC
国别 :
美国 (US)
星等 :
--
Orbit Information
数据来源 国际轨道数据 AOE轨道数据
星历时间 2026-06-18T08:20:38+0800
14小时前
查看轨道信息
2026-06-17T06:00:00+0800
1天前
查看轨道信息
半长轴 6853.381km 6853.37km
偏心率 0.0001295 0.0001438
轨道倾角 53.159° 53.159°
近地点辐角 78.532° 69.815°
升交点赤经 177.743° 182.843°
平近点角 281.583° 0.219°
近地点 474.356km 474.247km
远地点 476.132km 476.219km
周期 94.106分钟 94.106分钟
每日圈数 15.301904 15.301943
Detailed Information
固有亮度:
5
最大亮度:
0.3
卫星平台:
Starlink v2.0 mini
覆盖范围:
全球
运营商:
太空探索技术公司
运营商所在国:
美国
制造商(研发单位):
太空探索技术公司
制造商所在国:
美国
使用方式:
暂无
Satellite Introduction
星链(Starlink)计划是由太空探索技术公司(SpaceX)提出的一个巨型低轨卫星互联网星座项目,计划在2019年至2024年间在太空搭建由约1.2万颗卫星组成的“星链”网络,其中1584颗将部署在地球上空550千米处的近地轨道,并从2020年开始工作。该卫星仍在工作。
2D Orbit Map
3D Orbit Map
Orbit Altitude Analysis Chart
Orbit Inclination Analysis Chart
Orbit Comprehensive Analysis Chart
View Comprehensive Chart